| time (UTC) | temp C | wind direction | speed KPH | gust KPH | rain 1hr cm | rain 24hr cm | rain mn cm | humidity % | barometer mb |
| 20260505224031 | 26 | 300 | 1.6 | 17.7 | 0.00 | 0.00 | 0.00 | 41 | 1015.0 |
| 20260505223530 | 26 | 271 | 1.6 | 17.7 | 0.00 | 0.00 | 0.00 | 42 | 1015.1 |
| 20260505223044 | 26 | 150 | 6.4 | 17.7 | 0.00 | 0.00 | 0.00 | 41 | 1015.1 |
| 20260505222528 | 26 | 313 | 3.2 | 14.5 | 0.00 | 0.00 | 0.00 | 41 | 1015.0 |
| 20260505222028 | 26 | 257 | 3.2 | 11.3 | 0.00 | 0.00 | 0.00 | 40 | 1015.0 |
| 20260505221541 | 27 | 229 | 1.6 | 9.7 | 0.00 | 0.00 | 0.00 | 41 | 1015.1 |
| 20260505221031 | 27 | 199 | 1.6 | 12.9 | 0.00 | 0.00 | 0.00 | 41 | 1015.3 |
| 20260505220528 | 27 | 298 | 4.8 | 12.9 | 0.00 | 0.00 | 0.00 | 40 | 1015.2 |
| 20260505220047 | 27 | 231 | 1.6 | 8.0 | 0.00 | 0.00 | 0.00 | 39 | 1015.3 |
| 20260505215530 | 27 | 54 | 0.0 | 9.7 | 0.00 | 0.00 | 0.00 | 39 | 1015.4 |
| 20260505215030 | 27 | 159 | 1.6 | 9.7 | 0.00 | 0.00 | 0.00 | 39 | 1015.3 |
| 20260505214543 | 27 | 301 | 3.2 | 9.7 | 0.00 | 0.00 | 0.00 | 38 | 1015.3 |
| 20260505214029 | 27 | 187 | 1.6 | 8.0 | 0.00 | 0.00 | 0.00 | 38 | 1015.4 |
| 20260505213534 | 27 | 198 | 1.6 | 16.1 | 0.00 | 0.00 | 0.00 | 39 | 1015.5 |
| 20260505213046 | 27 | 296 | 1.6 | 16.1 | 0.00 | 0.00 | 0.00 | 39 | 1015.5 |
| 20260505212533 | 27 | 239 | 4.8 | 14.5 | 0.00 | 0.00 | 0.00 | 38 | 1015.6 |
| 20260505212030 | 27 | 271 | 3.2 | 12.9 | 0.00 | 0.00 | 0.00 | 40 | 1015.5 |
| 20260505211545 | 27 | 209 | 3.2 | 12.9 | 0.00 | 0.00 | 0.00 | 39 | 1015.6 |
| 20260505211032 | 27 | 157 | 1.6 | 12.9 | 0.00 | 0.00 | 0.00 | 39 | 1015.5 |
| 20260505210530 | 27 | 321 | 1.6 | 12.9 | 0.00 | 0.00 | 0.00 | 40 | 1015.6 |
| 20260505210037 | 27 | 273 | 3.2 | 11.3 | 0.00 | 0.00 | 0.00 | 39 | 1015.6 |
| 20260505205532 | 27 | 348 | 3.2 | 8.0 | 0.00 | 0.00 | 0.00 | 38 | 1015.7 |
| 20260505205030 | 27 | 0 | 0.0 | 16.1 | 0.00 | 0.00 | 0.00 | 38 | 1015.7 |
| 20260505204544 | 27 | 0 | 3.2 | 17.7 | 0.00 | 0.00 | 0.00 | 39 | 1015.8 |
| 20260505204034 | 27 | 0 | 3.2 | 17.7 | 0.00 | 0.00 | 0.00 | 42 | 1015.8 |
| 20260505203530 | 27 | 239 | 4.8 | 20.9 | 0.00 | 0.00 | 0.00 | 41 | 1015.9 |
| 20260505203049 | 27 | 228 | 4.8 | 20.9 | 0.00 | 0.00 | 0.00 | 40 | 1015.9 |
| 20260505202529 | 27 | 304 | 3.2 | 17.7 | 0.00 | 0.00 | 0.00 | 40 | 1015.9 |
| 20260505202030 | 27 | 141 | 6.4 | 20.9 | 0.00 | 0.00 | 0.00 | 42 | 1015.8 |
| 20260505201547 | 27 | 232 | 6.4 | 20.9 | 0.00 | 0.00 | 0.00 | 42 | 1015.9 |
| 20260505201030 | 27 | 336 | 1.6 | 12.9 | 0.00 | 0.00 | 0.00 | 40 | 1016.0 |
| 20260505200530 | 27 | 279 | 3.2 | 12.9 | 0.00 | 0.00 | 0.00 | 39 | 1016.0 |
| 20260505200053 | 27 | 203 | 4.8 | 12.9 | 0.00 | 0.00 | 0.00 | 37 | 1016.1 |
| 20260505195533 | 27 | 221 | 0.0 | 8.0 | 0.00 | 0.00 | 0.00 | 38 | 1016.1 |
| 20260505195029 | 27 | 0 | 1.6 | 9.7 | 0.00 | 0.00 | 0.00 | 40 | 1016.2 |
| 20260505194548 | 27 | 309 | 1.6 | 9.7 | 0.00 | 0.00 | 0.00 | 38 | 1016.2 |
| 20260505194031 | 27 | 315 | 3.2 | 11.3 | 0.00 | 0.00 | 0.00 | 40 | 1016.3 |
| 20260505193534 | 27 | 0 | 3.2 | 11.3 | 0.00 | 0.00 | 0.00 | 41 | 1016.3 |
| 20260505193055 | 27 | 255 | 1.6 | 8.0 | 0.00 | 0.00 | 0.00 | 39 | 1016.4 |
| 20260505192530 | 26 | 234 | 1.6 | 11.3 | 0.00 | 0.00 | 0.00 | 42 | 1016.4 |
| 20260505192029 | 26 | 94 | 3.2 | 11.3 | 0.00 | 0.00 | 0.00 | 42 | 1016.6 |
| 20260505191542 | 26 | 316 | 3.2 | 14.5 | 0.00 | 0.00 | 0.00 | 41 | 1016.6 |
| 20260505191031 | 26 | 277 | 4.8 | 14.5 | 0.00 | 0.00 | 0.00 | 43 | 1016.7 |
| 20260505190529 | 26 | 240 | 6.4 | 14.5 | 0.00 | 0.00 | 0.00 | 42 | 1016.9 |
| 20260505190044 | 26 | 342 | 4.8 | 14.5 | 0.00 | 0.00 | 0.00 | 42 | 1017.0 |
| 20260505185530 | 27 | 175 | 3.2 | 14.5 | 0.00 | 0.00 | 0.00 | 41 | 1017.0 |
| 20260505185030 | 27 | 218 | 4.8 | 14.5 | 0.00 | 0.00 | 0.00 | 40 | 1017.0 |
| 20260505184542 | 27 | 203 | 1.6 | 9.7 | 0.00 | 0.00 | 0.00 | 43 | 1017.2 |
| 20260505184030 | 27 | 178 | 1.6 | 9.7 | 0.00 | 0.00 | 0.00 | 43 | 1017.2 |
| 20260505183530 | 26 | 0 | 3.2 | 20.9 | 0.00 | 0.00 | 0.00 | 45 | 1017.4 |
| 20260505183043 | 26 | 360 | 3.2 | 20.9 | 0.00 | 0.00 | 0.00 | 46 | 1017.6 |
| 20260505182529 | 26 | 311 | 1.6 | 19.3 | 0.00 | 0.00 | 0.00 | 48 | 1017.6 |
| 20260505182029 | 26 | 250 | 6.4 | 19.3 | 0.00 | 0.00 | 0.00 | 45 | 1017.7 |
| 20260505181540 | 26 | 176 | 1.6 | 6.4 | 0.00 | 0.00 | 0.00 | 45 | 1017.7 |
| 20260505181030 | 26 | 0 | 1.6 | 6.4 | 0.00 | 0.00 | 0.00 | 45 | 1017.7 |
| 20260505180529 | 25 | 128 | 1.6 | 19.3 | 0.00 | 0.00 | 0.00 | 50 | 1017.6 |
| 20260505180044 | 25 | 282 | 6.4 | 19.3 | 0.00 | 0.00 | 0.00 | 46 | 1017.7 |
| 20260505175530 | 26 | 263 | 3.2 | 14.5 | 0.00 | 0.00 | 0.00 | 48 | 1017.8 |
| 20260505175030 | 26 | 227 | 4.8 | 14.5 | 0.00 | 0.00 | 0.00 | 47 | 1017.9 |
| 20260505174542 | 25 | 198 | 4.8 | 20.9 | 0.00 | 0.00 | 0.00 | 48 | 1017.9 |
| 20260505174030 | 25 | 278 | 4.8 | 20.9 | 0.00 | 0.00 | 0.00 | 46 | 1017.8 |
| 20260505173529 | 26 | 194 | 6.4 | 20.9 | 0.00 | 0.00 | 0.00 | 48 | 1017.8 |
| 20260505173039 | 25 | 241 | 1.6 | 17.7 | 0.00 | 0.00 | 0.00 | 50 | 1017.8 |
| 20260505172529 | 25 | 217 | 4.8 | 19.3 | 0.00 | 0.00 | 0.00 | 48 | 1017.8 |
| 20260505172029 | 25 | 277 | 4.8 | 20.9 | 0.00 | 0.00 | 0.00 | 50 | 1018.0 |
| 20260505171547 | 25 | 223 | 8.0 | 20.9 | 0.00 | 0.00 | 0.00 | 49 | 1018.0 |
| 20260505171029 | 25 | 258 | 3.2 | 12.9 | 0.00 | 0.00 | 0.00 | 51 | 1018.0 |
| 20260505170529 | 25 | 246 | 4.8 | 14.5 | 0.00 | 0.00 | 0.00 | 50 | 1018.0 |
| 20260505170045 | 25 | 261 | 4.8 | 14.5 | 0.00 | 0.00 | 0.00 | 50 | 1017.9 |
| 20260505165529 | 25 | 0 | 1.6 | 6.4 | 0.00 | 0.00 | 0.00 | 52 | 1018.1 |
| 20260505165030 | 25 | 314 | 1.6 | 11.3 | 0.00 | 0.00 | 0.00 | 52 | 1018.1 |
| 20260505164544 | 25 | 76 | 1.6 | 11.3 | 0.00 | 0.00 | 0.00 | 54 | 1018.1 |
| 20260505164031 | 25 | 265 | 4.8 | 14.5 | 0.00 | 0.00 | 0.00 | 52 | 1018.2 |
| 20260505163530 | 25 | 0 | 3.2 | 14.5 | 0.00 | 0.00 | 0.00 | 53 | 1018.2 |
| 20260505163042 | 25 | 262 | 3.2 | 14.5 | 0.00 | 0.00 | 0.00 | 52 | 1018.3 |
| 20260505162530 | 25 | 138 | 6.4 | 12.9 | 0.00 | 0.00 | 0.00 | 52 | 1018.4 |
| 20260505162033 | 25 | 0 | 1.6 | 9.7 | 0.00 | 0.00 | 0.00 | 54 | 1018.6 |
| 20260505161539 | 24 | 352 | 3.2 | 12.9 | 0.00 | 0.00 | 0.00 | 54 | 1018.6 |
| 20260505161030 | 24 | 275 | 4.8 | 12.9 | 0.00 | 0.00 | 0.00 | 54 | 1018.5 |
| 20260505160531 | 24 | 232 | 4.8 | 11.3 | 0.00 | 0.00 | 0.00 | 52 | 1018.6 |
| 20260505153048 | 23 | 269 | 1.6 | 6.4 | 0.00 | 0.00 | 0.00 | 54 | 1018.7 |
| 20260505152530 | 23 | 73 | 1.6 | 6.4 | 0.00 | 0.00 | 0.00 | 56 | 1018.8 |
| 20260505152036 | 23 | 299 | 1.6 | 8.0 | 0.00 | 0.00 | 0.00 | 55 | 1018.8 |
| 20260505151544 | 22 | 246 | 3.2 | 12.9 | 0.00 | 0.00 | 0.00 | 57 | 1018.7 |
| 20260505151030 | 22 | 0 | 0.0 | 12.9 | 0.00 | 0.00 | 0.00 | 56 | 1018.7 |
| 20260505150530 | 22 | 183 | 1.6 | 9.7 | 0.00 | 0.00 | 0.00 | 58 | 1018.6 |
| 20260505140530 | 20 | 0 | 3.2 | 8.0 | 0.00 | 0.00 | 0.00 | 64 | 1018.4 |
| 20260505125031 | 17 | 0 | 0.0 | 0.0 | 0.00 | 0.00 | 0.00 | 79 | 1018.0 |
| 20260505124603 | 16 | 0 | 0.0 | 0.0 | 0.00 | 0.00 | 0.00 | 81 | 1018.2 |
| 20260505124030 | 16 | 0 | 0.0 | 0.0 | 0.00 | 0.00 | 0.00 | 84 | 1018.1 |
| 20260505123533 | 15 | 0 | 0.0 | 0.0 | 0.00 | 0.00 | 0.00 | 85 | 1018.0 |
| 20260505123112 | 15 | 0 | 0.0 | 0.0 | 0.00 | 0.00 | 0.00 | 86 | 1018.1 |
| 20260505122530 | 15 | 0 | 0.0 | 0.0 | 0.00 | 0.00 | 0.00 | 86 | 1018.0 |
| 20260505122031 | 15 | 0 | 0.0 | 1.6 | 0.00 | 0.00 | 0.00 | 88 | 1018.0 |
| 20260505121541 | 14 | 0 | 0.0 | 1.6 | 0.00 | 0.00 | 0.00 | 87 | 1017.9 |
| 20260505121035 | 13 | 0 | 0.0 | 0.0 | 0.00 | 0.00 | 0.00 | 88 | 1017.9 |
| 20260505120532 | 13 | 0 | 0.0 | 0.0 | 0.00 | 0.00 | 0.00 | 89 | 1017.7 |
| 20260505120055 | 13 | 0 | 0.0 | 0.0 | 0.00 | 0.00 | 0.00 | 91 | 1017.7 |
| 20260505115531 | 12 | 0 | 0.0 | 0.0 | 0.00 | 0.00 | 0.00 | 92 | 1017.6 |
| 20260505115031 | 12 | 0 | 0.0 | 1.6 | 0.00 | 0.00 | 0.00 | 92 | 1017.7 |
| 20260505114538 | 12 | 0 | 0.0 | 1.6 | 0.00 | 0.00 | 0.00 | 92 | 1017.6 |
| 20260505114031 | 11 | 0 | 0.0 | 0.0 | 0.00 | 0.00 | 0.00 | 92 | 1017.7 |
| 20260505113534 | 11 | 0 | 0.0 | 0.0 | 0.00 | 0.00 | 0.00 | 93 | 1017.6 |
| 20260505113045 | 11 | 0 | 0.0 | 0.0 | 0.00 | 0.00 | 0.00 | 93 | 1017.6 |
| 20260505112531 | 11 | 0 | 0.0 | 0.0 | 0.00 | 0.00 | 0.00 | 93 | 1017.6 |
| 20260505112033 | 11 | 0 | 0.0 | 1.6 | 0.00 | 0.00 | 0.00 | 93 | 1017.5 |
| 20260505111544 | 11 | 0 | 0.0 | 1.6 | 0.00 | 0.00 | 0.00 | 93 | 1017.4 |
| 20260505111033 | 11 | 0 | 0.0 | 1.6 | 0.00 | 0.00 | 0.00 | 92 | 1017.5 |
| 20260505110530 | 11 | 0 | 0.0 | 1.6 | 0.00 | 0.00 | 0.00 | 92 | 1017.3 |
| 20260505102029 | 11 | 0 | 0.0 | 0.0 | 0.00 | 0.00 | 0.00 | 90 | 1017.0 |
| 20260505101541 | 12 | 0 | 0.0 | 0.0 | 0.00 | 0.00 | 0.00 | 90 | 1016.8 |
| 20260505101029 | 12 | 0 | 0.0 | 0.0 | 0.00 | 0.00 | 0.00 | 89 | 1016.8 |
| 20260505100526 | 12 | 0 | 0.0 | 1.6 | 0.00 | 0.00 | 0.00 | 89 | 1016.9 |
| 20260505100044 | 12 | 0 | 0.0 | 1.6 | 0.00 | 0.00 | 0.00 | 89 | 1017.0 |
| 20260505095525 | 12 | 0 | 0.0 | 0.0 | 0.00 | 0.00 | 0.00 | 89 | 1017.0 |
| 20260505095025 | 12 | 0 | 0.0 | 0.0 | 0.00 | 0.00 | 0.00 | 88 | 1017.1 |
| 20260505094541 | 12 | 0 | 0.0 | 4.8 | 0.00 | 0.00 | 0.00 | 89 | 1017.1 |
| 20260505094025 | 12 | 0 | 0.0 | 4.8 | 0.00 | 0.00 | 0.00 | 88 | 1017.2 |
| 20260505093529 | 12 | 0 | 0.0 | 4.8 | 0.00 | 0.00 | 0.00 | 88 | 1017.3 |
| 20260505093038 | 12 | 0 | 0.0 | 4.8 | 0.00 | 0.00 | 0.00 | 88 | 1017.3 |
| 20260505092526 | 12 | 0 | 0.0 | 1.6 | 0.00 | 0.00 | 0.00 | 87 | 1017.3 |
| 20260505092026 | 13 | 0 | 0.0 | 1.6 | 0.00 | 0.00 | 0.00 | 87 | 1017.3 |
| 20260505091556 | 13 | 0 | 0.0 | 1.6 | 0.00 | 0.00 | 0.00 | 86 | 1017.6 |
| 20260505091033 | 13 | 0 | 0.0 | 1.6 | 0.00 | 0.00 | 0.00 | 86 | 1017.6 |
| 20260505090529 | 13 | 0 | 0.0 | 1.6 | 0.00 | 0.00 | 0.00 | 86 | 1017.7 |
| 20260505090039 | 13 | 0 | 0.0 | 3.2 | 0.00 | 0.00 | 0.00 | 85 | 1017.6 |
| 20260505085526 | 13 | 0 | 0.0 | 3.2 | 0.00 | 0.00 | 0.00 | 85 | 1017.6 |
| 20260505085026 | 13 | 0 | 0.0 | 3.2 | 0.00 | 0.00 | 0.00 | 84 | 1017.3 |
| 20260505084600 | 13 | 0 | 0.0 | 0.0 | 0.00 | 0.00 | 0.00 | 84 | 1017.3 |
| 20260505084025 | 14 | 0 | 0.0 | 0.0 | 0.00 | 0.00 | 0.00 | 83 | 1017.3 |
| 20260505083529 | 14 | 0 | 0.0 | 0.0 | 0.00 | 0.00 | 0.00 | 83 | 1017.4 |
| 20260505083059 | 14 | 0 | 0.0 | 0.0 | 0.00 | 0.00 | 0.00 | 82 | 1017.3 |
| 20260505082526 | 15 | 0 | 0.0 | 1.6 | 0.00 | 0.00 | 0.00 | 82 | 1017.2 |
| 20260505082026 | 15 | 0 | 0.0 | 6.4 | 0.00 | 0.00 | 0.00 | 82 | 1017.2 |
| 20260505081555 | 15 | 0 | 0.0 | 8.0 | 0.00 | 0.00 | 0.00 | 82 | 1017.2 |
| 20260505081026 | 15 | 0 | 0.0 | 11.3 | 0.00 | 0.00 | 0.00 | 82 | 1016.9 |
| 20260505080529 | 15 | 227 | 1.6 | 11.3 | 0.00 | 0.00 | 0.00 | 82 | 1017.0 |
| 20260505080050 | 15 | 0 | 0.0 | 8.0 | 0.00 | 0.00 | 0.00 | 82 | 1017.0 |
| 20260505075529 | 15 | 242 | 1.6 | 8.0 | 0.00 | 0.00 | 0.00 | 81 | 1017.1 |
| 20260505075029 | 15 | 0 | 1.6 | 6.4 | 0.00 | 0.00 | 0.00 | 81 | 1017.0 |
| 20260505074556 | 15 | 0 | 0.0 | 6.4 | 0.00 | 0.00 | 0.00 | 81 | 1017.1 |
| 20260505074031 | 15 | 248 | 0.0 | 4.8 | 0.00 | 0.00 | 0.00 | 81 | 1017.0 |
| 20260505073530 | 15 | 0 | 0.0 | 11.3 | 0.00 | 0.00 | 0.00 | 80 | 1017.1 |
| 20260505073052 | 15 | 0 | 1.6 | 11.3 | 0.00 | 0.00 | 0.00 | 80 | 1017.1 |
| 20260505072531 | 14 | 243 | 1.6 | 11.3 | 0.00 | 0.00 | 0.00 | 81 | 1017.1 |
| 20260505072031 | 14 | 178 | 0.0 | 11.3 | 0.00 | 0.00 | 0.00 | 81 | 1017.1 |
| 20260505071548 | 14 | 229 | 1.6 | 11.3 | 0.00 | 0.00 | 0.00 | 81 | 1017.2 |
| 20260505071031 | 14 | 0 | 0.0 | 8.0 | 0.00 | 0.00 | 0.00 | 80 | 1017.2 |
| 20260505070535 | 14 | 246 | 0.0 | 8.0 | 0.00 | 0.00 | 0.00 | 79 | 1017.1 |
| 20260505070051 | 14 | 207 | 0.0 | 8.0 | 0.00 | 0.00 | 0.00 | 78 | 1017.2 |
| 20260505065531 | 14 | 216 | 1.6 | 6.4 | 0.00 | 0.00 | 0.00 | 78 | 1017.1 |
| 20260505065031 | 14 | 0 | 1.6 | 8.0 | 0.00 | 0.00 | 0.00 | 77 | 1017.1 |
| 20260505064540 | 14 | 202 | 1.6 | 9.7 | 0.00 | 0.00 | 0.00 | 77 | 1017.1 |
| 20260505064033 | 14 | 241 | 1.6 | 11.3 | 0.00 | 0.00 | 0.00 | 77 | 1017.2 |
| 20260505063531 | 13 | 249 | 1.6 | 11.3 | 0.00 | 0.00 | 0.00 | 78 | 1017.3 |
| 20260505063051 | 13 | 218 | 3.2 | 11.3 | 0.00 | 0.00 | 0.00 | 78 | 1017.2 |
| 20260505062530 | 13 | 235 | 1.6 | 9.7 | 0.00 | 0.00 | 0.00 | 77 | 1017.3 |
| 20260505062030 | 12 | 0 | 1.6 | 8.0 | 0.00 | 0.00 | 0.00 | 78 | 1017.3 |
| 20260505061542 | 12 | 230 | 1.6 | 8.0 | 0.00 | 0.00 | 0.00 | 78 | 1017.4 |
| 20260505061031 | 11 | 214 | 1.6 | 8.0 | 0.00 | 0.00 | 0.00 | 79 | 1017.4 |
| 20260505060534 | 11 | 211 | 1.6 | 8.0 | 0.00 | 0.00 | 0.00 | 80 | 1017.5 |
| 20260505060057 | 11 | 157 | 0.0 | 8.0 | 0.00 | 0.00 | 0.00 | 80 | 1017.3 |
| 20260505055532 | 11 | 0 | 0.0 | 4.8 | 0.00 | 0.00 | 0.00 | 82 | 1017.3 |
| 20260505055031 | 11 | 0 | 0.0 | 6.4 | 0.00 | 0.00 | 0.00 | 82 | 1017.2 |
| 20260505054544 | 11 | 0 | 1.6 | 8.0 | 0.00 | 0.00 | 0.00 | 82 | 1017.3 |
| 20260505054035 | 11 | 188 | 1.6 | 8.0 | 0.00 | 0.00 | 0.00 | 83 | 1017.3 |
| 20260505053531 | 11 | 0 | 0.0 | 0.0 | 0.00 | 0.00 | 0.00 | 84 | 1017.1 |
| 20260505053043 | 11 | 0 | 0.0 | 0.0 | 0.00 | 0.00 | 0.00 | 83 | 1017.2 |
| 20260505052530 | 11 | 0 | 0.0 | 0.0 | 0.00 | 0.00 | 0.00 | 83 | 1017.3 |
| 20260505052032 | 11 | 0 | 0.0 | 0.0 | 0.00 | 0.00 | 0.00 | 83 | 1017.2 |
| 20260505051540 | 11 | 0 | 0.0 | 0.0 | 0.00 | 0.00 | 0.00 | 83 | 1017.2 |
| 20260505051031 | 11 | 0 | 0.0 | 0.0 | 0.00 | 0.00 | 0.00 | 83 | 1017.2 |
| 20260505050530 | 11 | 0 | 0.0 | 0.0 | 0.00 | 0.00 | 0.00 | 82 | 1017.2 |
| 20260505041550 | 12 | 0 | 0.0 | 0.0 | 0.00 | 0.00 | 0.00 | 77 | 1017.2 |
| 20260505041030 | 12 | 0 | 0.0 | 0.0 | 0.00 | 0.00 | 0.00 | 78 | 1017.3 |
| 20260505040531 | 12 | 0 | 0.0 | 0.0 | 0.00 | 0.00 | 0.00 | 78 | 1017.3 |
| 20260505040047 | 12 | 0 | 0.0 | 0.0 | 0.00 | 0.00 | 0.00 | 78 | 1017.3 |
| 20260505035534 | 12 | 0 | 0.0 | 0.0 | 0.00 | 0.00 | 0.00 | 78 | 1017.4 |
| 20260505035032 | 12 | 0 | 0.0 | 0.0 | 0.00 | 0.00 | 0.00 | 79 | 1017.5 |
| 20260505034543 | 12 | 0 | 0.0 | 0.0 | 0.00 | 0.00 | 0.00 | 79 | 1017.6 |
| 20260505034031 | 12 | 0 | 0.0 | 0.0 | 0.00 | 0.00 | 0.00 | 78 | 1017.5 |
| 20260505033531 | 12 | 0 | 0.0 | 0.0 | 0.00 | 0.00 | 0.00 | 78 | 1017.6 |
| 20260505033042 | 12 | 0 | 0.0 | 0.0 | 0.00 | 0.00 | 0.00 | 78 | 1017.6 |
| 20260505032529 | 13 | 0 | 0.0 | 0.0 | 0.00 | 0.00 | 0.00 | 77 | 1017.6 |
| 20260505032032 | 13 | 0 | 0.0 | 0.0 | 0.00 | 0.00 | 0.00 | 77 | 1017.6 |
| 20260505031543 | 13 | 0 | 0.0 | 0.0 | 0.00 | 0.00 | 0.00 | 77 | 1017.6 |
| 20260505031031 | 13 | 0 | 0.0 | 0.0 | 0.00 | 0.00 | 0.00 | 76 | 1017.7 |
| 20260505030535 | 13 | 0 | 0.0 | 0.0 | 0.00 | 0.00 | 0.00 | 76 | 1017.8 |
| 20260505030054 | 13 | 0 | 0.0 | 0.0 | 0.00 | 0.00 | 0.00 | 75 | 1017.6 |
| 20260505025531 | 13 | 0 | 0.0 | 0.0 | 0.00 | 0.00 | 0.00 | 75 | 1017.6 |
| 20260505025030 | 13 | 0 | 0.0 | 0.0 | 0.00 | 0.00 | 0.00 | 74 | 1017.6 |
| 20260505024538 | 13 | 0 | 0.0 | 0.0 | 0.00 | 0.00 | 0.00 | 73 | 1017.5 |
| 20260505024030 | 13 | 0 | 0.0 | 0.0 | 0.00 | 0.00 | 0.00 | 73 | 1017.5 |
| 20260505023530 | 14 | 0 | 0.0 | 0.0 | 0.00 | 0.00 | 0.00 | 72 | 1017.6 |
| 20260505023044 | 14 | 0 | 0.0 | 0.0 | 0.00 | 0.00 | 0.00 | 72 | 1017.5 |
| 20260505022530 | 14 | 0 | 0.0 | 0.0 | 0.00 | 0.00 | 0.00 | 70 | 1017.5 |
| 20260505022030 | 14 | 0 | 0.0 | 0.0 | 0.00 | 0.00 | 0.00 | 70 | 1017.5 |
| 20260505021543 | 15 | 0 | 0.0 | 0.0 | 0.00 | 0.00 | 0.00 | 69 | 1017.4 |
| 20260505021030 | 15 | 0 | 0.0 | 0.0 | 0.00 | 0.00 | 0.00 | 69 | 1017.3 |
| 20260505020530 | 15 | 0 | 0.0 | 0.0 | 0.00 | 0.00 | 0.00 | 68 | 1017.3 |
| 20260505020043 | 15 | 0 | 0.0 | 0.0 | 0.00 | 0.00 | 0.00 | 67 | 1017.3 |
| 20260505015530 | 15 | 0 | 0.0 | 0.0 | 0.00 | 0.00 | 0.00 | 66 | 1017.3 |
| 20260505015031 | 15 | 0 | 0.0 | 0.0 | 0.00 | 0.00 | 0.00 | 66 | 1017.2 |
| 20260505014602 | 16 | 0 | 0.0 | 0.0 | 0.00 | 0.00 | 0.00 | 65 | 1017.1 |
| 20260505014030 | 16 | 0 | 0.0 | 0.0 | 0.00 | 0.00 | 0.00 | 64 | 1017.1 |
| 20260505013532 | 16 | 0 | 0.0 | 0.0 | 0.00 | 0.00 | 0.00 | 63 | 1017.0 |
| 20260505013047 | 16 | 0 | 0.0 | 0.0 | 0.00 | 0.00 | 0.00 | 61 | 1016.8 |
| 20260505012530 | 16 | 0 | 0.0 | 0.0 | 0.00 | 0.00 | 0.00 | 60 | 1016.7 |
| 20260505012030 | 17 | 0 | 0.0 | 0.0 | 0.00 | 0.00 | 0.00 | 59 | 1016.9 |
| 20260505011543 | 17 | 0 | 0.0 | 0.0 | 0.00 | 0.00 | 0.00 | 58 | 1017.0 |
| 20260505011030 | 17 | 0 | 0.0 | 0.0 | 0.00 | 0.00 | 0.00 | 58 | 1016.9 |
| 20260505010530 | 18 | 0 | 0.0 | 0.0 | 0.00 | 0.00 | 0.00 | 56 | 1016.8 |
| 20260505010054 | 18 | 0 | 0.0 | 0.0 | 0.00 | 0.00 | 0.00 | 54 | 1016.6 |
| 20260505005531 | 18 | 0 | 0.0 | 0.0 | 0.00 | 0.00 | 0.00 | 53 | 1016.6 |
| 20260505005031 | 18 | 0 | 0.0 | 3.2 | 0.00 | 0.00 | 0.00 | 52 | 1016.6 |
| 20260505004548 | 19 | 0 | 0.0 | 3.2 | 0.00 | 0.00 | 0.00 | 51 | 1016.5 |
| 20260505004030 | 19 | 0 | 0.0 | 0.0 | 0.00 | 0.00 | 0.00 | 50 | 1016.6 |
| 20260505003529 | 20 | 0 | 0.0 | 0.0 | 0.00 | 0.00 | 0.00 | 49 | 1016.5 |
| 20260505003054 | 20 | 0 | 0.0 | 0.0 | 0.00 | 0.00 | 0.00 | 47 | 1016.6 |
| 20260505002530 | 20 | 0 | 0.0 | 0.0 | 0.00 | 0.00 | 0.00 | 48 | 1016.5 |
| 20260505002030 | 20 | 0 | 0.0 | 0.0 | 0.00 | 0.00 | 0.00 | 45 | 1016.5 |
| 20260505001541 | 21 | 0 | 0.0 | 0.0 | 0.00 | 0.00 | 0.00 | 45 | 1016.5 |
| 20260505001032 | 21 | 0 | 0.0 | 0.0 | 0.00 | 0.00 | 0.00 | 44 | 1016.5 |
| 20260505000530 | 21 | 0 | 0.0 | 0.0 | 0.00 | 0.00 | 0.00 | 44 | 1016.5 |
| 20260505000040 | 21 | 0 | 0.0 | 0.0 | 0.00 | 0.00 | 0.00 | 42 | 1016.5 |
| 20260504235530 | 22 | 0 | 0.0 | 1.6 | 0.00 | 0.00 | 0.00 | 42 | 1016.5 |
| 20260504235031 | 22 | 0 | 0.0 | 4.8 | 0.00 | 0.00 | 0.00 | 39 | 1016.4 |
| 20260504234536 | 22 | 0 | 0.0 | 6.4 | 0.00 | 0.00 | 0.00 | 37 | 1016.5 |
| 20260504234030 | 22 | 0 | 1.6 | 6.4 | 0.00 | 0.00 | 0.00 | 37 | 1016.4 |
| 20260504233530 | 22 | 0 | 0.0 | 4.8 | 0.00 | 0.00 | 0.00 | 37 | 1016.5 |
| 20260504233045 | 23 | 0 | 0.0 | 4.8 | 0.00 | 0.00 | 0.00 | 35 | 1016.6 |
| 20260504232530 | 23 | 0 | 0.0 | 4.8 | 0.00 | 0.00 | 0.00 | 34 | 1016.6 |
| 20260504232029 | 23 | 0 | 0.0 | 9.7 | 0.00 | 0.00 | 0.00 | 33 | 1016.5 |
| 20260504231539 | 23 | 0 | 0.0 | 9.7 | 0.00 | 0.00 | 0.00 | 33 | 1016.5 |
| 20260504231029 | 23 | 0 | 1.6 | 8.0 | 0.00 | 0.00 | 0.00 | 33 | 1016.5 |
| 20260504230530 | 23 | 0 | 0.0 | 4.8 | 0.00 | 0.00 | 0.00 | 32 | 1016.5 |
| 20260504230110 | 23 | 221 | 0.0 | 11.3 | 0.00 | 0.00 | 0.00 | 33 | 1016.4 |
| 20260504225530 | 23 | 0 | 1.6 | 11.3 | 0.00 | 0.00 | 0.00 | 31 | 1016.3 |
| 20260504225029 | 24 | 250 | 3.2 | 9.7 | 0.00 | 0.00 | 0.00 | 31 | 1016.3 |
| 20260504224545 | 24 | 262 | 0.0 | 8.0 | 0.00 | 0.00 | 0.00 | 31 | 1016.3 |